Regional Weather Roundup
Issued by NWS Charleston, SC

Current Version | Previous Version | Graphics & Text | Print | Product List | Glossary On
Versions: 1 2 3 4 5 6 7 8 9 10 11 12 13 14 15 16 17 18 19 20 21 22 23 24 25 26 27 28 29 30 31 32 33 34 35 36 37 38 39 40 41 42 43 44 45 46 47 48 49 50
000 ASUS42 KCHS 211912 RWRCHS Regional Weather Roundup National Weather Service Charleston SC 200 PM EST WED FEB 21 2018 NOTE: "fair" indicates few or no clouds below 12,000 feet with no significant weather and/or obstructions to visibility. Not all stations are quality controlled. Use data with caution, especially dewpoint observations. SCZ027-030-031-034>040-042>050-212000- ...Southeast South Carolina... CITY SKY/WX TMP DP RH WIND PRES REMARKS N Charleston LGT RAIN 77 68 73 S14 30.42F Waterfront Prk N/A 70 67 90 S9 30.28F Mount Pleasant FAIR 75 68 78 S12 30.44S Johns Island CLOUDY 77 70 78 SE8 30.43F Pinopolis N/A 75 68 78 VRB3 30.36F Moncks Corner CLOUDY 75 66 73 S5 30.42F Summerville CLOUDY 77 64 65 S5 30.42F Beaufort MCAS PTSUNNY 78 70 76 SE12 30.42F Beaufort Arpt CLOUDY 77 68 73 S7 30.42F Hilton Head Is MOSUNNY 75 68 78 S8 30.43F Walterboro MOCLDY 81 64 57 S12 30.42S Allendale MOCLDY 79 66 65 VRB3 30.39F ...Southern Midlands and Pee Dee... CITY SKY/WX TMP DP RH WIND PRES REMARKS Georgetown CLOUDY 75 68 78 S12 30.45F Kingstree MOCLDY 79 63 57 S9 30.42F Orangeburg PTSUNNY 76 67 73 W8 30.41F Barnwell N/A 81 68 65 VRB7 30.40F Aiken FAIR 79 63 57 SW6 30.43F Manning CLOUDY 77 14 9 MISG 30.41F Columbia PTSUNNY 79 68 69 S8 30.39F Sumter PTSUNNY 72 70 94 W8 30.40F Florence CLOUDY 80 63 55 VRB6 30.42F Myrtle Beach FAIR 76 67 73 S10 30.45F N Myrtle Beach FAIR 73 67 81 S9 30.44F $$ GAZ063-065-086>088-099>101-113>116-118-119-134>141-150-212000- ...Southeast Georgia... CITY SKY/WX TMP DP RH WIND PRES REMARKS Savannah Arpt PTSUNNY 81 67 62 S10G24 30.40F Hunter AAF FAIR 78 75 90 SE10 30.38F Fort Stewart PTSUNNY 81 65 58 S10 30.37F Statesboro CLOUDY 83 61 46 S9 30.39F Sylvania NOT AVBL Claxton NOT AVBL ...CSRA, Central and far Southeast Georgia... CITY SKY/WX TMP DP RH WIND PRES REMARKS Thomson FAIR 79 65 61 W7 30.44F Augusta-Bush PTSUNNY 83 65 54 S9 30.37F Augusta-Daniel FAIR 82 64 54 VRB7G17 30.39F Swainsboro MOCLDY 81 64 57 SW6 30.39F Vidalia PTSUNNY 86 66 51 SW5 30.38F Eastman FAIR 85 52 31 SW9 30.40F Hazlehurst FAIR 82 58 43 S6 30.37F Alma PTSUNNY 83 63 50 S7 30.37F Waycross PTSUNNY 85 60 41 S8 30.37F Jesup CLOUDY 84 63 48 S5 30.38F Baxley FAIR 82 63 51 S9 30.37F Brunswick NOT AVBL Saint Simons FAIR 78 69 73 SE8 30.40F $$ SCZ027-028-034-036>038-045-046-048>050-GAZ119-141-212000- ...Lake and Supplemental Coastal Observations... STATION/POSITION TIME TEMP WIND PRES WAVE SWELL AIR SEA DIR/SP/G HT/PER HT/PER/DIR (UTC) (F) (DEG/KT/KT) (MB) (FT/S) (FT/S/D) Winyah Bay 1745 69 130/ 6 1032.0 Lake Murray 1820 72 110/ 4/ 4 1028.8 ACE Basin NERRS 1745 77 170/ 3 1031.0 Fort Pulaski 1848 75 60 180/ 8/ 10 1030.4F Sapelo Island 1800 79 160/ 10 1030.0 $$ ANZ835-935-AMZ111-154-330-350-352-354-370-450-454-472-212000- ...C-MAN and Buoy Observations... STATION/POSITION TIME TEMP WIND PRES WAVE SWELL AIR SEA DIR/SP/G HT/PER HT/PER/DIR (UTC) (F) (DEG/KT/KT) (MB) (FT/S) (FT/S/D) Buoy 41004 1900 73 69 190/ 4/ 4 1030.6 Buoy 41008 1850 65 60 130/ 4/ 4 1029.6F 3/ 7 3/110/ 7 Folly Beach CMAN 1900 67 120/ 3/ 3 1031.2F Capers Nearshore 1808 65 61 150/ 6/ 8 1030.7F Fripp Nearshore 1808 64 59 130/ 4/ 6 1030.2F STATION/POSITION TIME TEMP WIND PRES WAVE SWELL AIR SEA DIR/SP/G HT/PER HT/PER/DIR (UTC) (F) (DEG/KT/KT) (MB) (FT/S) (FT/S/D) 5E St. Marys GA 1900 67 N/A 3/ 7 2/100/13 Frying Pan Buoy 1850 72 71 190/ 8/ 8 1031.1F 4/ 7 3/140/ 7 Buoy 41025 1900 73 72 190/ 14/ 16 1031.8 Cape Lookout NC 1800 210/ 7/ 9 1032.0F Buoy 41002 1850 72 75 120/ 12/ 14 1032.6F 5/ 7 5/110/ 7 Buoy 41010 NOT AVBL St Augustine FL 1900 70 63 100/ 7/ 8 1029.4F $$

USA.gov is the U.S. government's official web portal to all federal, state and local government web resources and services.